Accueil
METAR-TAF:

METAR-TAF

Aéroports :

Corvallis, Oregon, États-Unis

latitude: 44-30N, longitude: 123-17W, altitude: 75 m

Observation

Le bulletin a été fait il y a 17 minutes, à 14:56 UTC
Vent 8 kt de ouest/nord-ouest
Température 17°C
Humidité 77%
Pression 1016 hPa
Visibilité: 16.1 km
Quelques nuages à une hauteur de 11000 ft

METAR: KCVO 201456Z AUTO 30008KT 10SM FEW110 17/13 A2999 RMK AO2 SLP155 6//// T01670128 51010 PNO $

Heure: 08:13 (15:13 UTC)


TAF: absent

Observations et prévisions météorologiques de plus de 4000 aéroports (messages METAR et TAF).

Les stations disponibles sont représentées par des disques jaunes et rouges sur la carte.

Passer la souris dessus pour voir le nom de la station.

Cliquer dessus pour voir les observations et prévisions météorologiques.

Pour changer de carte: cliquez sur les boutons verts avec une croix noire pour zoomer, sur le bouton vert avec un tiret pour effectuer un zoom arrière, ou sur les flèches vertes pour les cartes adjacentes.


METAR-TAF: